New Roads False River Regiona, LA

6:49 AM CDT on June 18, 2019 (GMT -0500)
False River

Weather History for KHZR - May, 2019

Change the Weather History Date:

Saturday, May 25, 2019

  Actual Average (KBTR) Record (KBTR)
Temperature  
Mean Temperature 78 °F -  
Max Temperature 89 °F 86 °F 98 °F (1921)
Min Temperature 68 °F 67 °F 52 °F (1940)
Cooling Degree Days 14    
Growing Degree Days 28 (Base 50)    
Moisture  
Dew Point 70 °F    
Average Humidity 77    
Maximum Humidity 100    
Minimum Humidity 43    
Precipitation  
Precipitation 0.00 in - - ()
Sea Level Pressure  
Sea Level Pressure 30.10 in    
Wind  
Wind Speed 3 mph ()    
Max Wind Speed 9 mph    
Max Gust Speed -    
Averages and records for this station are not official NWS values.
T = Trace of Precipitation, MM = Missing Value Source: Averaged Metar Reports

Daily Weather History Graph

Daily Weather History Graph

Search for Another Location

Airport or City:

Astronomy

May. 25, 2019 Rise Set
Actual Time 6:05 AM CDT 8:00 PM CDT
Civil Twilight 5:39 AM CDT 8:27 PM CDT
Nautical Twilight 5:06 AM CDT 8:59 PM CDT
Astronomical Twilight 4:31 AM CDT 9:34 PM CDT
Moon 1:05 AM CDT (5/25) 12:00 PM CDT (5/25)
Length of Visible Light 14h 48m
Length of Day
13h 54m
Waning Gibbous, 59% of the Moon is Illuminated
May 25
Waning Gibbous
May 26
Last Quarter
Jun 3
New
Jun 10
First Quarter
Jun 17
Full

Hourly Weather History & Observations

Time (CDT) Temp. Heat Index Dew Point Humidity Pressure Visibility Wind Dir Wind Speed Gust Speed Precip Events Conditions
12:14 AM 78.8 °F - 71.6 °F 78% 30.08 in - South 4.6 mph - N/A   Scattered Clouds
12:37 AM 77.0 °F - 71.6 °F 83% 30.09 in - South 5.8 mph - N/A   Scattered Clouds
12:56 AM 75.2 °F - 71.6 °F 89% 30.09 in - SSW 4.6 mph - N/A   Clear
1:15 AM 75.2 °F - 71.6 °F 89% 30.09 in - South 4.6 mph - N/A   Unknown
1:35 AM 75.2 °F - 71.6 °F 89% 30.09 in - South 4.6 mph - N/A   Clear
1:54 AM 75.2 °F - 71.6 °F 89% 30.08 in - SSE 4.6 mph - N/A   Unknown
2:14 AM 73.4 °F - 71.6 °F 94% 30.08 in - SE 3.5 mph - N/A   Unknown
2:54 AM 73.4 °F - 71.6 °F 94% 30.08 in - Calm Calm - N/A   Unknown
3:14 AM 73.4 °F - 71.6 °F 94% 30.08 in - Calm Calm - N/A   Unknown
3:35 AM 73.4 °F - 71.6 °F 94% 30.08 in - Calm Calm - N/A   Unknown
3:55 AM 71.6 °F - 69.8 °F 94% 30.08 in - Calm Calm - N/A   Unknown
4:36 AM 69.8 °F - 69.8 °F 100% 30.08 in - Calm Calm - N/A   Unknown
5:14 AM 69.8 °F - 69.8 °F 100% 30.09 in - East 3.5 mph - N/A   Unknown
5:35 AM 69.8 °F - 69.8 °F 100% 30.09 in - Calm Calm - N/A   Unknown
5:55 AM 69.8 °F - 69.8 °F 100% 30.10 in - Calm Calm - N/A   Unknown
6:16 AM 69.8 °F - 68.0 °F 94% 30.10 in - Calm Calm - N/A   Unknown
6:36 AM 68.0 °F - 68.0 °F 100% 30.11 in - Calm Calm - N/A   Unknown
6:54 AM 69.8 °F - 69.8 °F 100% 30.12 in - Calm Calm - N/A   Unknown
7:16 AM 71.6 °F - 71.6 °F 100% 30.13 in - Calm Calm - N/A   Unknown
7:35 AM 73.4 °F - 71.6 °F 94% 30.13 in - ENE 3.5 mph - N/A   Unknown
7:54 AM 73.4 °F - 73.4 °F 100% 30.14 in - ENE 4.6 mph - N/A   Unknown
8:16 AM 75.2 °F - 71.6 °F 89% 30.14 in - ENE 3.5 mph - N/A   Unknown
8:36 AM 77.0 °F - 73.4 °F 89% 30.15 in - ENE 4.6 mph - N/A   Unknown
8:54 AM 78.8 °F - 73.4 °F 83% 30.15 in - North 3.5 mph - N/A   Scattered Clouds
9:56 AM 80.6 °F 85.4 °F 73.4 °F 79% 30.15 in - ESE 6.9 mph - N/A   Scattered Clouds
10:35 AM 82.4 °F 88.2 °F 73.4 °F 74% 30.15 in - ESE 5.8 mph - N/A   Mostly Cloudy
10:54 AM 82.4 °F 88.2 °F 73.4 °F 74% 30.15 in - ESE 5.8 mph - N/A   Scattered Clouds
11:15 AM 84.2 °F 89.6 °F 71.6 °F 66% 30.15 in - East 6.9 mph - N/A   Scattered Clouds
11:36 AM 84.2 °F 89.6 °F 71.6 °F 66% 30.15 in - SE 3.5 mph - N/A   Scattered Clouds
11:55 AM 84.2 °F 89.6 °F 71.6 °F 66% 30.15 in - Calm Calm - N/A   Scattered Clouds
12:14 PM 86.0 °F 91.8 °F 71.6 °F 62% 30.15 in - East 3.5 mph - N/A   Scattered Clouds
12:36 PM 86.0 °F 90.4 °F 69.8 °F 58% 30.14 in - SSE 4.6 mph - N/A   Mostly Cloudy
1:16 PM 87.8 °F 91.4 °F 68.0 °F 52% 30.13 in - SE 3.5 mph - N/A   Scattered Clouds
2:36 PM 87.8 °F 91.4 °F 68.0 °F 52% 30.10 in - East 4.6 mph - N/A   Mostly Cloudy
2:55 PM 87.8 °F 91.4 °F 68.0 °F 52% 30.10 in - SE 9.2 mph - N/A   Scattered Clouds
3:35 PM 89.6 °F 92.2 °F 66.2 °F 46% 30.08 in - ESE 6.9 mph - N/A   Scattered Clouds
3:56 PM 89.6 °F 92.2 °F 66.2 °F 46% 30.08 in - SSE 4.6 mph - N/A   Scattered Clouds
4:55 PM 89.6 °F 91.1 °F 64.4 °F 43% 30.08 in - South 6.9 mph - N/A   Clear
5:14 PM 89.6 °F 92.2 °F 66.2 °F 46% 30.08 in - South 8.1 mph - N/A   Clear
5:34 PM 89.6 °F 91.1 °F 64.4 °F 43% 30.07 in - South 5.8 mph - N/A   Clear
5:56 PM 89.6 °F 91.1 °F 64.4 °F 43% 30.07 in - South 6.9 mph - N/A   Clear
7:14 PM 87.8 °F 90.4 °F 66.2 °F 49% 30.06 in - SSE 4.6 mph - N/A   Clear
8:16 PM 84.2 °F 86.6 °F 66.2 °F 55% 30.06 in - Calm Calm - N/A   Clear
9:37 PM 80.6 °F 84.6 °F 71.6 °F 74% 30.08 in - SE 5.8 mph - N/A   Clear
9:56 PM 80.6 °F 83.9 °F 69.8 °F 70% 30.08 in - SE 6.9 mph - N/A   Clear
10:15 PM 78.8 °F - 69.8 °F 74% 30.10 in - SE 4.6 mph - N/A   Clear
11:14 PM 77.0 °F - 69.8 °F 78% 30.11 in - South 4.6 mph - N/A   Clear
11:36 PM 77.0 °F - 69.8 °F 78% 30.11 in - South 3.5 mph - N/A   Clear